Location: Les Coudrans
(46.1056°N, 1.1158°W)
Time: 13:10:58
(UTC+00:00)

USA 234 - Pass Details

Date: 03 March 2021
Orbit: 1102 x 1105 km, 123.0° (Epoch: 13 April)

Event Time Altitude Azimuth Distance (km) Brightness Sun altitude
Exits shadow 21:27:18 50° 349° (N) 1,375 3.8 -36.2°
Maximum altitude 21:27:42 51° 337° (NNW) 1,364 3.9 -36.3°
Drops below altitude 10° 21:33:59 10° 263° (W) 2,960 6.0 -37.2°
Sets 21:36:31 0° 259° (W) 3,917 6.6 -37.5°
